Time,TemperatureF,DewpointF,PressureIn,WindDirection,WindDirectionDegrees,WindSpeedMPH,WindSpeedGustMPH,Humidity,HourlyPrecipIn,Conditions,Clouds,dailyrainin,SoftwareType,DateUTC
2013-07-09 02:43:00,50.0,49.0,30.16,SSW,202,4.0,8.0,95,-99.99,,,0.00,,2013-07-09 06:43:00,
2013-07-09 02:53:00,50.0,49.0,30.16,SSW,202,4.0,8.0,95,-99.99,,,0.00,,2013-07-09 06:53:00,
2013-07-09 03:02:00,50.0,49.0,30.16,SSW,202,4.0,8.0,95,-99.99,,,0.00,,2013-07-09 07:02:00,
2013-07-09 03:43:00,49.0,47.0,30.17,WSW,247,3.0,8.0,92,-99.99,,,0.00,,2013-07-09 07:43:00,
2013-07-09 03:53:00,49.0,47.0,30.17,WSW,247,3.0,8.0,92,-99.99,,,0.00,,2013-07-09 07:53:00,
2013-07-09 04:01:00,49.0,47.0,30.17,WSW,247,3.0,8.0,92,-99.99,,,0.00,,2013-07-09 08:01:00,
2013-07-09 04:43:00,48.0,45.0,30.17,WNW,292,4.0,7.0,91,-99.99,,,0.00,,2013-07-09 08:43:00,
2013-07-09 04:52:00,48.0,45.0,30.17,WNW,292,4.0,7.0,91,-99.99,,,0.00,,2013-07-09 08:52:00,
2013-07-09 05:02:00,48.0,45.0,30.17,WNW,292,4.0,7.0,91,-99.99,,,0.00,,2013-07-09 09:02:00,
2013-07-09 05:42:00,48.0,45.0,30.17,West,270,2.0,9.0,91,-99.99,,,0.00,,2013-07-09 09:42:00,
2013-07-09 05:53:00,48.0,45.0,30.17,West,270,2.0,9.0,91,-99.99,,,0.00,,2013-07-09 09:53:00,
2013-07-09 06:02:00,48.0,45.0,30.17,West,270,2.0,9.0,91,-99.99,,,0.00,,2013-07-09 10:02:00,
2013-07-09 06:42:00,49.0,48.0,30.18,WNW,292,5.0,8.0,95,-99.99,,,0.00,,2013-07-09 10:42:00,
2013-07-09 06:52:00,49.0,48.0,30.18,WNW,292,5.0,8.0,95,-99.99,,,0.00,,2013-07-09 10:52:00,
2013-07-09 07:02:00,49.0,48.0,30.18,WNW,292,5.0,8.0,95,-99.99,,,0.00,,2013-07-09 11:02:00,
2013-07-09 07:42:00,52.0,51.0,30.19,NNW,337,5.0,7.0,97,-99.99,,,0.00,,2013-07-09 11:42:00,
2013-07-09 07:53:00,52.0,51.0,30.19,NNW,337,5.0,7.0,97,-99.99,,,0.00,,2013-07-09 11:53:00,
2013-07-09 08:02:00,52.0,51.0,30.19,NNW,337,5.0,7.0,97,-99.99,,,0.00,,2013-07-09 12:02:00,
2013-07-09 08:43:00,57.0,55.0,30.20,WSW,247,0.0,6.0,93,-99.99,,,0.00,,2013-07-09 12:43:00,
2013-07-09 08:53:00,57.0,55.0,30.20,WSW,247,0.0,6.0,93,-99.99,,,0.00,,2013-07-09 12:53:00,
2013-07-09 09:01:00,57.0,55.0,30.20,WSW,247,0.0,6.0,93,-99.99,,,0.00,,2013-07-09 13:01:00,
2013-07-09 09:53:00,61.0,57.0,30.20,NW,315,5.0,6.0,87,-99.99,,,0.00,,2013-07-09 13:53:00,
2013-07-09 10:02:00,61.0,57.0,30.20,NW,315,5.0,6.0,87,-99.99,,,0.00,,2013-07-09 14:02:00,
2013-07-09 10:43:00,66.0,59.0,30.19,ENE,67,3.0,9.0,79,-99.99,,,0.00,,2013-07-09 14:43:00,
2013-07-09 10:53:00,66.0,59.0,30.19,ENE,67,3.0,9.0,79,-99.99,,,0.00,,2013-07-09 14:53:00,
2013-07-09 11:02:00,66.0,59.0,30.19,ENE,67,3.0,9.0,79,-99.99,,,0.00,,2013-07-09 15:02:00,
2013-07-09 11:52:00,69.0,59.0,30.18,NE,45,5.0,8.0,70,-99.99,,,0.00,,2013-07-09 15:52:00,
2013-07-09 12:02:00,69.0,59.0,30.18,NE,45,5.0,8.0,70,-99.99,,,0.00,,2013-07-09 16:02:00,
2013-07-09 12:43:00,72.0,56.0,30.17,North,360,3.0,9.0,57,-99.99,,,0.00,,2013-07-09 16:43:00,
2013-07-09 12:53:00,72.0,56.0,30.17,North,360,3.0,9.0,57,-99.99,,,0.00,,2013-07-09 16:53:00,
2013-07-09 13:02:00,72.0,56.0,30.17,North,360,3.0,9.0,57,-99.99,,,0.00,,2013-07-09 17:02:00,
2013-07-09 13:53:00,74.0,56.0,30.15,East,90,1.0,9.0,53,-99.99,,,0.00,,2013-07-09 17:53:00,
2013-07-09 14:02:00,74.0,56.0,30.15,East,90,1.0,9.0,53,-99.99,,,0.00,,2013-07-09 18:02:00,
2013-07-09 14:43:00,76.0,54.0,30.14,North,360,1.0,10.0,46,-99.99,,,0.00,,2013-07-09 18:43:00,
2013-07-09 14:52:00,76.0,54.0,30.14,North,360,1.0,10.0,46,-99.99,,,0.00,,2013-07-09 18:52:00,
2013-07-09 15:01:00,76.0,54.0,30.14,North,360,1.0,10.0,46,-99.99,,,0.00,,2013-07-09 19:01:00,
2013-07-09 15:42:00,74.0,54.0,30.13,WNW,292,5.0,8.0,50,-99.99,,,0.00,,2013-07-09 19:42:00,
2013-07-09 15:52:00,74.0,54.0,30.13,WNW,292,5.0,8.0,50,-99.99,,,0.00,,2013-07-09 19:52:00,
2013-07-09 16:02:00,74.0,54.0,30.13,WNW,292,5.0,8.0,50,-99.99,,,0.00,,2013-07-09 20:02:00,
2013-07-09 17:43:00,77.0,59.0,30.09,NE,45,4.0,7.0,53,-99.99,,,0.00,,2013-07-09 21:43:00,
2013-07-09 17:52:00,77.0,59.0,30.09,NE,45,4.0,7.0,53,-99.99,,,0.00,,2013-07-09 21:52:00,
2013-07-09 18:01:00,77.0,59.0,30.09,NE,45,4.0,7.0,53,-99.99,,,0.00,,2013-07-09 22:01:00,
2013-07-09 18:42:00,76.0,60.0,30.08,ENE,67,2.0,8.0,58,-99.99,,,0.00,,2013-07-09 22:42:00,
2013-07-09 18:53:00,76.0,60.0,30.08,ENE,67,2.0,8.0,58,-99.99,,,0.00,,2013-07-09 22:53:00,
2013-07-09 19:02:00,76.0,60.0,30.08,ENE,67,2.0,8.0,58,-99.99,,,0.00,,2013-07-09 23:02:00,
2013-07-09 19:43:00,76.0,62.0,30.09,East,90,3.0,11.0,62,-99.99,,,0.00,,2013-07-09 23:43:00,
2013-07-09 19:53:00,76.0,62.0,30.09,East,90,3.0,11.0,62,-99.99,,,0.00,,2013-07-09 23:53:00,
2013-07-09 20:01:00,76.0,62.0,30.09,East,90,3.0,11.0,62,-99.99,,,0.00,,2013-07-10 00:01:00,
2013-07-09 20:43:00,74.0,63.0,30.09,East,90,3.0,7.0,69,-99.99,,,-99.99,,2013-07-10 00:43:00,
2013-07-09 20:52:00,74.0,63.0,30.09,East,90,3.0,7.0,69,-99.99,,,-99.99,,2013-07-10 00:52:00,
2013-07-09 21:01:00,74.0,63.0,30.09,East,90,3.0,7.0,69,-99.99,,,-99.99,,2013-07-10 01:01:00,